sat.trackr.live / text

‹ back to catalog

FFLY02

NORAD 65322 · 2025-188H

PAYLOAD ACTIVE UNKNOWN

§ Identity

Operator
Country
IND
Launch date
2025-08-26
Launch site
AFWTR
Launch vehicle
Mass (kg)
RCS (m²)

External: N2YO · Heavens-Above · Gunter

§ Orbital elements

Epoch: 2026-05-25T03:50:03.905088Z

Period
96.47 min
Inclination
97.7371°
Eccentricity
0.0011733
Mean motion
14.92702683 rev/d
Perigee alt
581.3 km
Apogee alt
597.7 km
Semi-major
6,967.6 km
B*
1.3528e-4
RAAN
220.7859°
Arg perigee
194.5739°
Mean anomaly
165.5144°
Rev number
4,047

§ Raw data

FFLY021 65322U 25188H   26145.15976742  .00001341  00000+0  13528-3 0  99912 65322  97.7371 220.7859 0011733 194.5739 165.5144 14.92702683 40473

JSON: /api/v1/satellites/65322 · /tle

For live sub-satellite position, see the globe view (requires WebGL).

§ Visibility from observer

Set your observer location to see the next 7 days of passes ≥ 10°. The values pass through the URL so the page stays shareable.

No JS? Fill the form by hand. The geolocation button needs JavaScript.

§ Radio — SatNOGS DB

ModeDescriptionDownlinkUplink
FM S-band telemetry 2.243 GHz

1 transmitter · refreshed weekly from db.satnogs.org